Brunswick, GA

9:55 PM EDT on May 22, 2017 (GMT -0400)
Glynco Jetport

Weather History for KBQK - August, 2014

Change the Weather History Date:

Monday, August 25, 2014

  Actual Average Record
Temperature  
Mean Temperature 78 °F -  
Max Temperature 84 °F 90 °F 102 °F (1938)
Min Temperature 73 °F 73 °F 64 °F (1957)
Cooling Degree Days 14    
Growing Degree Days 28 (Base 50)    
Moisture  
Dew Point 67 °F    
Average Humidity 64    
Maximum Humidity 78    
Minimum Humidity 51    
Precipitation  
Precipitation 0.00 in - - ()
Sea Level Pressure  
Sea Level Pressure 29.96 in    
Wind  
Wind Speed 12 mph (NE)    
Max Wind Speed 17 mph    
Max Gust Speed 28 mph    
Visibility 10 miles    
Events      
Averages and records for this station are not official NWS values.
T = Trace of Precipitation, MM = Missing Value Source: NWS Daily Summary

Daily Weather History Graph

Daily Weather History Graph

Search for Another Location

Airport or City:

Trip Planner

Search our weather history database for the weather conditions in past years. The results will help you decide how hot, cold, wet, or windy it might be!

Date:

Astronomy

Aug. 25, 2014 Rise Set
Actual Time 6:57 AM EDT 7:57 PM EDT
Civil Twilight 6:32 AM EDT 8:22 PM EDT
Nautical Twilight 6:03 AM EDT 8:52 PM EDT
Astronomical Twilight 5:32 AM EDT 9:22 PM EDT
Moon 6:58 AM EDT (8/25) 7:52 PM EDT (8/25)
Length of Visible Light 13h 50m
Length of Day
13h 00m
New Moon, 0% of the Moon is Illuminated
Aug 25
New Moon
Sep 2
First Quarter
Sep 8
Full
Sep 15
Last Quarter
Sep 24
New

Hourly Weather History & Observations

Time (EDT) Temp. Heat Index Dew Point Humidity Pressure Visibility Wind Dir Wind Speed Gust Speed Precip Events Conditions
12:15 AM 82.4 °F 85.4 °F 68.0 °F 62% 29.95 in 10.0 mi NE 13.8 mph 21.9 mph N/A   Overcast
12:35 AM 82.4 °F 85.4 °F 68.0 °F 62% 29.95 in 10.0 mi NE 17.3 mph 24.2 mph N/A   Overcast
12:55 AM 82.4 °F 85.4 °F 68.0 °F 62% 29.95 in 10.0 mi NE 16.1 mph 20.7 mph N/A   Overcast
1:15 AM 82.4 °F 85.4 °F 68.0 °F 62% 29.95 in 10.0 mi NE 13.8 mph 25.3 mph N/A   Overcast
1:35 AM 80.6 °F 83.2 °F 68.0 °F 65% 29.95 in 10.0 mi ENE 15.0 mph 27.6 mph N/A   Mostly Cloudy
1:55 AM 80.6 °F 83.2 °F 68.0 °F 65% 29.94 in 10.0 mi ENE 15.0 mph 25.3 mph N/A   Scattered Clouds
2:15 AM 80.6 °F 83.2 °F 68.0 °F 65% 29.94 in 10.0 mi NE 13.8 mph 17.3 mph N/A   Mostly Cloudy
2:35 AM 80.6 °F 83.2 °F 68.0 °F 65% 29.93 in 10.0 mi NE 9.2 mph - N/A   Mostly Cloudy
2:55 AM 80.6 °F 83.2 °F 68.0 °F 65% 29.93 in 10.0 mi NE 11.5 mph - N/A   Scattered Clouds
3:15 AM 80.6 °F 83.9 °F 69.8 °F 70% 29.92 in 10.0 mi NE 10.4 mph 17.3 mph N/A   Scattered Clouds
3:35 AM 80.6 °F 83.9 °F 69.8 °F 70% 29.92 in 10.0 mi NE 9.2 mph 18.4 mph N/A   Mostly Cloudy
3:55 AM 80.6 °F 83.2 °F 68.0 °F 65% 29.93 in 10.0 mi NE 11.5 mph 19.6 mph N/A   Overcast
4:15 AM 80.6 °F 83.2 °F 68.0 °F 65% 29.92 in 10.0 mi NE 11.5 mph 16.1 mph N/A   Overcast
4:35 AM 80.6 °F 83.2 °F 68.0 °F 65% 29.93 in 10.0 mi NE 12.7 mph 18.4 mph N/A   Overcast
4:55 AM 78.8 °F - 68.0 °F 69% 29.93 in 10.0 mi NNE 9.2 mph - N/A   Mostly Cloudy
5:15 AM 78.8 °F - 68.0 °F 69% 29.93 in 10.0 mi NNE 10.4 mph - N/A   Mostly Cloudy
5:35 AM 77.0 °F - 68.0 °F 74% 29.94 in 10.0 mi NNE 11.5 mph 18.4 mph N/A   Overcast
5:55 AM 77.0 °F - 68.0 °F 74% 29.94 in 10.0 mi NNE 10.4 mph 16.1 mph N/A   Mostly Cloudy
6:15 AM 77.0 °F - 68.0 °F 74% 29.95 in 10.0 mi NNE 9.2 mph - N/A   Clear
6:35 AM 75.2 °F - 68.0 °F 78% 29.95 in 10.0 mi NNE 8.1 mph - N/A   Clear
6:55 AM 75.2 °F - 68.0 °F 78% 29.95 in 10.0 mi NNE 10.4 mph - N/A   Clear
7:15 AM 75.2 °F - 68.0 °F 78% 29.96 in 10.0 mi NNE 8.1 mph - N/A   Clear
7:35 AM 73.4 °F - 66.2 °F 78% 29.96 in 10.0 mi North 8.1 mph - N/A   Scattered Clouds
7:55 AM 75.2 °F - 66.2 °F 73% 29.97 in 10.0 mi North 6.9 mph - N/A   Mostly Cloudy
8:15 AM 75.2 °F - 64.4 °F 69% 29.97 in 10.0 mi North 11.5 mph 16.1 mph N/A   Scattered Clouds
8:35 AM 75.2 °F - 64.4 °F 69% 29.97 in 10.0 mi NNE 9.2 mph 17.3 mph N/A   Clear
8:55 AM 77.0 °F - 64.4 °F 65% 29.97 in 10.0 mi NNE 10.4 mph 17.3 mph N/A   Clear
9:15 AM 77.0 °F - 64.4 °F 65% 29.98 in 10.0 mi North 12.7 mph 19.6 mph N/A   Clear
9:35 AM 77.0 °F - 64.4 °F 65% 29.97 in 10.0 mi NNE 10.4 mph 17.3 mph N/A   Clear
9:55 AM 78.8 °F - 66.2 °F 65% 29.98 in 10.0 mi NNE 15.0 mph 21.9 mph N/A   Scattered Clouds
10:35 AM 78.8 °F - 66.2 °F 65% 29.98 in 10.0 mi NE 15.0 mph 21.9 mph N/A   Mostly Cloudy
10:55 AM 78.8 °F - 66.2 °F 65% 29.99 in 10.0 mi NNE 12.7 mph 18.4 mph N/A   Overcast
11:15 AM 78.8 °F - 66.2 °F 65% 29.99 in 10.0 mi NE 12.7 mph 20.7 mph N/A   Overcast
11:35 AM 78.8 °F - 66.2 °F 65% 30.00 in 10.0 mi NNE 15.0 mph 21.9 mph N/A   Mostly Cloudy
11:55 AM 80.6 °F 83.2 °F 68.0 °F 65% 29.99 in 10.0 mi NE 11.5 mph 18.4 mph N/A   Overcast
12:15 PM 80.6 °F 82.7 °F 66.2 °F 61% 30.00 in 10.0 mi NNE 12.7 mph 16.1 mph N/A   Overcast
12:35 PM 80.6 °F 82.7 °F 66.2 °F 61% 30.00 in 10.0 mi NNE 13.8 mph 18.4 mph N/A   Overcast
12:55 PM 80.6 °F 82.7 °F 66.2 °F 61% 30.00 in 10.0 mi NNE 10.4 mph 20.7 mph N/A   Overcast
1:15 PM 82.4 °F 84.6 °F 66.2 °F 58% 29.99 in 10.0 mi NE 12.7 mph - N/A   Overcast
1:35 PM 82.4 °F 84.6 °F 66.2 °F 58% 29.99 in 10.0 mi North 12.7 mph 20.7 mph N/A   Overcast
1:55 PM 82.4 °F 85.4 °F 68.0 °F 62% 29.99 in 10.0 mi NE 12.7 mph - N/A   Mostly Cloudy
2:15 PM 82.4 °F 85.4 °F 68.0 °F 62% 29.98 in 10.0 mi NE 16.1 mph 20.7 mph N/A   Mostly Cloudy
2:35 PM 82.4 °F 84.6 °F 66.2 °F 58% 29.98 in 10.0 mi NNE 13.8 mph 21.9 mph N/A   Mostly Cloudy
2:55 PM 82.4 °F 84.6 °F 66.2 °F 58% 29.97 in 10.0 mi NE 15.0 mph 23.0 mph N/A   Mostly Cloudy
3:15 PM 82.4 °F 85.4 °F 68.0 °F 62% 29.97 in 10.0 mi NE 15.0 mph 21.9 mph N/A   Mostly Cloudy
3:35 PM 82.4 °F 84.6 °F 66.2 °F 58% 29.96 in 10.0 mi NE 13.8 mph - N/A   Mostly Cloudy
3:55 PM 82.4 °F 84.6 °F 66.2 °F 58% 29.96 in 10.0 mi NE 12.7 mph 19.6 mph N/A   Mostly Cloudy
4:15 PM 84.2 °F 85.6 °F 64.4 °F 51% 29.96 in 10.0 mi NE 15.0 mph 23.0 mph N/A   Mostly Cloudy
4:35 PM 84.2 °F 85.6 °F 64.4 °F 51% 29.96 in 10.0 mi NE 15.0 mph 20.7 mph N/A   Mostly Cloudy
4:55 PM 82.4 °F 83.9 °F 64.4 °F 54% 29.96 in 10.0 mi NE 12.7 mph 19.6 mph N/A   Mostly Cloudy
5:15 PM 82.4 °F 83.9 °F 64.4 °F 54% 29.96 in 10.0 mi NNE 12.7 mph 19.6 mph N/A   Mostly Cloudy
5:35 PM 82.4 °F 83.9 °F 64.4 °F 54% 29.95 in 10.0 mi NE 11.5 mph 18.4 mph N/A   Mostly Cloudy
5:55 PM 82.4 °F 83.9 °F 64.4 °F 54% 29.96 in 10.0 mi NE 11.5 mph - N/A   Scattered Clouds
6:15 PM 82.4 °F 83.9 °F 64.4 °F 54% 29.96 in 10.0 mi NNE 11.5 mph 20.7 mph N/A   Clear
6:35 PM 82.4 °F 83.9 °F 64.4 °F 54% 29.96 in 10.0 mi NNE 11.5 mph - N/A   Mostly Cloudy
6:55 PM 80.6 °F 82.3 °F 64.4 °F 58% 29.96 in 10.0 mi NE 9.2 mph - N/A   Scattered Clouds
7:15 PM 82.4 °F 83.9 °F 64.4 °F 54% 29.96 in 10.0 mi NE 9.2 mph 17.3 mph N/A   Scattered Clouds
7:35 PM 82.4 °F 83.9 °F 64.4 °F 54% 29.96 in 10.0 mi NE 10.4 mph - N/A   Scattered Clouds
7:55 PM 78.8 °F - 68.0 °F 69% 29.96 in 10.0 mi NE 6.9 mph - N/A   Mostly Cloudy
8:15 PM 78.8 °F - 68.0 °F 69% 29.95 in 10.0 mi NNE 6.9 mph - N/A   Overcast
8:35 PM 80.6 °F 82.7 °F 66.2 °F 61% 29.96 in 10.0 mi NNE 10.4 mph - N/A   Overcast
8:55 PM 80.6 °F 82.3 °F 64.4 °F 58% 29.96 in 10.0 mi NE 10.4 mph - N/A   Overcast
9:15 PM 80.6 °F 82.7 °F 66.2 °F 61% 29.96 in 10.0 mi NNE 9.2 mph - N/A   Mostly Cloudy
9:35 PM 80.6 °F 82.7 °F 66.2 °F 61% 29.97 in 10.0 mi NE 13.8 mph 19.6 mph N/A   Mostly Cloudy
9:55 PM 80.6 °F 83.2 °F 68.0 °F 65% 29.98 in 10.0 mi NNE 10.4 mph - N/A   Overcast
10:15 PM 78.8 °F - 68.0 °F 69% 29.98 in 10.0 mi NNE 10.4 mph - N/A   Overcast
10:35 PM 78.8 °F - 68.0 °F 69% 29.98 in 10.0 mi NNE 8.1 mph - N/A   Mostly Cloudy
10:55 PM 77.0 °F - 68.0 °F 74% 29.98 in 10.0 mi NNE 5.8 mph - N/A   Overcast
11:15 PM 77.0 °F - 69.8 °F 78% 29.98 in 10.0 mi North 3.5 mph - N/A   Overcast
11:35 PM 78.8 °F - 69.8 °F 74% 29.98 in 10.0 mi Calm Calm - N/A   Overcast
11:55 PM 77.0 °F - 69.8 °F 78% 29.99 in 10.0 mi East 5.8 mph 9.2 mph N/A   Overcast